Weather History for Dallas Redbird, TX

Change the Weather History Date:

Friday, April 26, 2013

  Actual Average Record
Temperature  
Mean Temperature 68 °F -  
Max Temperature 79 °F 76 °F 88 °F (2012)
Min Temperature 60 °F 56 °F 51 °F (2003)
Cooling Degree Days 4    
Growing Degree Days 18 (Base 50)    
Moisture  
Dew Point 55 °F    
Average Humidity 64    
Maximum Humidity 81    
Minimum Humidity 50    
Precipitation  
Precipitation 0.00 in - - ()
Sea Level Pressure  
Sea Level Pressure 30.07 in    
Wind  
Wind Speed 10 mph (SE)    
Max Wind Speed 15 mph    
Max Gust Speed 22 mph    
Visibility 10 miles    
Events      
Averages and records for this station are not official NWS values.
T = Trace of Precipitation, MM = Missing Value Source: NWS Daily Summary

Daily Weather History Graph

Daily Weather History Graph

Search for Another Location

Airport:

Trip Planner

Search our weather history database for the weather conditions in past years. The results will help you decide how hot, cold, wet, or windy it might be!

Date:

Astronomy

Apr. 26, 2013 Rise Set
Actual Time 6:45 AM CDT 8:05 PM CDT
Civil Twilight 6:19 AM CDT 8:31 PM CDT
Nautical Twilight 5:48 AM CDT 9:02 PM CDT
Astronomical Twilight 5:16 AM CDT 9:34 PM CDT
Moon 9:25 PM CDT (4/26) 7:16 AM CDT (4/26)
Length of Visible Light 14h 12m
Length of Day
13h 20m
Full, 99% of the Moon is Illuminated
Apr 26
Full
May 2
Last Quarter
May 9
New
May 17
First Quarter
May 24
Full

Hourly Weather History & Observations

Time (CDT) Temp. Dew Point Humidity Pressure Visibility Wind Dir Wind Speed Gust Speed Precip Events Conditions
12:53 AM 62.1 °F 43.0 °F 50% 30.12 in 10.0 mi SSE 12.7 mph 20.7 mph N/A   Clear
2:53 AM 61.0 °F 44.1 °F 54% 30.15 in 10.0 mi ESE 5.8 mph - N/A   Overcast
3:53 AM 62.1 °F 44.1 °F 52% 30.12 in 10.0 mi East 9.2 mph - N/A   Overcast
4:53 AM 61.0 °F 43.0 °F 52% 30.10 in 10.0 mi SE 8.1 mph - N/A   Overcast
5:10 AM 60.8 °F 42.8 °F 52% 30.12 in 10.0 mi ESE 9.2 mph - N/A   Overcast
5:53 AM 61.0 °F 42.1 °F 50% 30.11 in 10.0 mi ESE 9.2 mph - N/A   Overcast
6:53 AM 61.0 °F 44.1 °F 54% 30.12 in 10.0 mi ESE 10.4 mph - 0.00 in   Overcast
7:53 AM 61.0 °F 48.0 °F 62% 30.14 in 10.0 mi ESE 8.1 mph - 0.00 in   Overcast
8:53 AM 62.1 °F 48.0 °F 60% 30.12 in 10.0 mi ESE 15.0 mph - N/A   Overcast
9:53 AM 62.1 °F 48.9 °F 62% 30.16 in 10.0 mi SE 5.8 mph - N/A   Overcast
10:53 AM 63.0 °F 52.0 °F 67% 30.15 in 10.0 mi ESE 10.4 mph - N/A   Overcast
11:53 AM 64.9 °F 54.0 °F 68% 30.14 in 10.0 mi SE 11.5 mph - N/A   Overcast
12:53 PM 71.1 °F 60.1 °F 68% 30.10 in 10.0 mi SSE 13.8 mph 21.9 mph N/A   Overcast
1:53 PM 72.0 °F 62.1 °F 71% 30.09 in 10.0 mi SE 12.7 mph - N/A   Overcast
2:53 PM 73.0 °F 63.0 °F 71% 30.05 in 10.0 mi SSE 12.7 mph 18.4 mph N/A   Overcast
3:50 PM 73.4 °F 64.4 °F 73% 30.04 in 9.0 mi SSE 6.9 mph 18.4 mph N/A   Overcast
3:53 PM 73.9 °F 64.0 °F 71% 30.03 in 9.0 mi SSE 6.9 mph 18.4 mph N/A   Overcast
4:53 PM 77.0 °F 64.0 °F 64% 30.00 in 10.0 mi South 13.8 mph 21.9 mph N/A   Mostly Cloudy
5:53 PM 77.0 °F 64.0 °F 64% 29.99 in 10.0 mi South 12.7 mph 18.4 mph N/A   Mostly Cloudy
6:53 PM 75.9 °F 64.0 °F 67% 29.98 in 10.0 mi South 10.4 mph - N/A   Clear
7:53 PM 75.9 °F 64.0 °F 67% 29.97 in 10.0 mi SSE 8.1 mph 16.1 mph N/A   Clear
8:53 PM 73.9 °F 64.0 °F 71% 29.98 in 10.0 mi SSE 6.9 mph - N/A   Clear
9:53 PM 72.0 °F 64.0 °F 76% 30.00 in 10.0 mi South 3.5 mph - N/A   Clear
10:53 PM 70.0 °F 64.0 °F 81% 30.01 in 10.0 mi SSE 5.8 mph - N/A   Mostly Cloudy
11:53 PM 71.1 °F 64.0 °F 78% 29.99 in 10.0 mi South 9.2 mph - N/A   Clear